Home > Weather > Vienna > Past weeks

Flag for Austria Past Weather in Vienna, Vienna, Austria — Yesterday and Last 2 Weeks

Now
58 °F

Clear.


Feels Like: 59 °F
Forecast: 53 / 74 °F
Wind: 3 mph from Northwest

Location: Wien / Hohe Warte

Current Time: May 26, 2016 at 2:50:10 AM

Latest Report: May 26, 2016 at 2:00 AM


Visibility: 13 mi

Pressure: 29.94 "Hg

Humidity: 86%

Dew Point: 54 °F

Location of ViennaLocation

Past Weather in Vienna — Graph

°F

Vienna Temperature Yesterday

Maximum temperature yesterday: 69 °F (at 4:00 PM)
Minimum temperature yesterday: 55 °F (at 12:00 AM)
Average temperature yesterday: 60 °F

High & Low Weather Summary for the Past Weeks

 TemperatureHumidityPressure
High80 °F (May 23, 5:00 PM)98% (May 12, 10:00 PM)30.13 "Hg (May 12, 10:00 PM)
Low44 °F (May 16, 4:00 AM)36% (May 18, 1:00 PM)29.32 "Hg (May 13, 4:00 AM)
Average59 °F70%29.84 "Hg
* Reported May 11 1:00 AM — May 26 1:00 AM, Vienna, Weather by CustomWeather, © 2016

Note: Actual official high and low records may vary slightly from our data, if they occured in-between our weather recording intervals... More about our weather records

Advertising

Vienna Weather History for the Previous 24 Hours

Scroll right to see more
 ConditionsComfort  
Time TempWeatherWind HumidityBarometerVisibility
1:00 AM
Thu, May 26
58 °FCool.3 mph87%29.95 "HgN/A
12:00 AM57 °FCool.1 mph89%29.94 "HgN/A
11:00 PM
Wed, May 25
60 °FPassing clouds.2 mph85%29.93 "Hg12 mi
10:00 PM61 °FPassing clouds.5 mph80%29.92 "Hg16 mi
9:00 PM63 °FPassing clouds.3 mph75%29.90 "Hg16 mi
8:00 PM65 °FPassing clouds.6 mph70%29.88 "Hg19 mi
7:00 PM67 °FPassing clouds.6 mph66%29.86 "Hg16 mi
6:00 PM69 °FScattered clouds.6 mph64%29.85 "Hg16 mi
5:00 PM69 °FPassing clouds.7 mph62%29.87 "Hg16 mi
4:00 PM69 °FPassing clouds.6 mph63%29.87 "Hg16 mi
3:00 PM68 °FPassing clouds.7 mph65%29.88 "Hg14 mi
2:00 PM67 °FPassing clouds.6 mph67%29.89 "Hg17 mi
1:00 PM63 °FPartly sunny.6 mph71%29.90 "Hg16 mi
12:00 PM60 °FPartly sunny.7 mph75%29.91 "Hg17 mi
11:00 AM60 °FPartly sunny.8 mph75%29.91 "Hg19 mi
10:00 AM59 °FPartly sunny.8 mph78%29.90 "Hg22 mi
9:00 AM56 °FOvercast.8 mph83%29.90 "Hg22 mi
8:00 AM55 °FOvercast.7 mph85%29.88 "Hg22 mi
7:00 AM55 °FDrizzle. Overcast.9 mph84%29.86 "Hg22 mi
6:00 AM56 °FOvercast.9 mph81%29.85 "Hg25 mi
5:00 AM55 °FCool.7 mph80%29.83 "HgN/A
4:00 AM55 °FOvercast.10 mph81%29.81 "Hg22 mi
3:00 AM55 °FCool.13 mph82%29.80 "HgN/A
2:00 AM55 °FPassing clouds.13 mph82%29.80 "Hg19 mi
Weather by CustomWeather, © 2016

See weather overviewHow to use our weather pages